Weather History for KELN - September, 2013

Change the Weather History Date:

Wednesday, September 11, 2013

  Actual Average (KYKM) Record (KYKM)
Temperature  
Mean Temperature 74 °F 62 °F  
Max Temperature 96 °F 80 °F 98 °F (2011)
Min Temperature 54 °F 45 °F 35 °F (1964)
Degree Days  
Heating Degree Days 0 4  
Month to date heating degree days 32  
Since 1 July heating degree days 80  
Cooling Degree Days 10 1  
Month to date cooling degree days 20  
Year to date cooling degree days 460  
Growing Degree Days 24 (Base 50)    
Moisture  
Dew Point 51 °F    
Average Humidity 51    
Maximum Humidity 80    
Minimum Humidity 18    
Precipitation  
Precipitation 0.00 in 0.02 in 0.51 in (1956)
Month to date precipitation 0.13  
Year to date precipitation 4.90  
Snow  
Snow 0.00 in 0.00 in 0.00 in (2002)
Month to date snowfall 0.0  
Year to date snowfall 8.6  
Since 1 July snowfall 0.0  
Snow Depth -    
Sea Level Pressure  
Sea Level Pressure 30.00 in    
Wind  
Wind Speed 2 mph (NE)    
Max Wind Speed 8 mph    
Max Gust Speed -    
Visibility 10 miles    
Events Rain    
T = Trace of Precipitation, MM = Missing Value Source: NWS Daily Summary

Daily Weather History Graph

Daily Weather History Graph

Search for Another Location

Airport or City:

Trip Planner

Search our weather history database for the weather conditions in past years. The results will help you decide how hot, cold, wet, or windy it might be!

Date:

Astronomy

Sep. 11, 2013 Rise Set
Actual Time 6:34 AM PDT 7:21 PM PDT
Civil Twilight 6:04 AM PDT 7:52 PM PDT
Nautical Twilight 5:27 AM PDT 8:28 PM PDT
Astronomical Twilight 4:48 AM PDT 9:07 PM PDT
Moon 1:33 PM PDT (9/11) 10:56 PM PDT (9/11)
Length of Visible Light 13h 47m
Length of Day
12h 46m
Waxing Crescent, 40% of the Moon is Illuminated
Sep 11
Waxing Crescent
Sep 12
First Quarter
Sep 19
Full
Sep 26
Last Quarter
Oct 4
New

Hourly Weather History & Observations

Time (PDT) Temp. Heat Index Dew Point Humidity Pressure Visibility Wind Dir Wind Speed Gust Speed Precip Events Conditions
12:53 AM 60.1 °F - 51.1 °F 72% 29.98 in 10.0 mi Calm Calm - N/A   Clear
1:53 AM 59.0 °F - 50.0 °F 72% 29.98 in 10.0 mi NE 4.6 mph - N/A   Clear
2:53 AM 57.9 °F - 50.0 °F 75% 29.99 in 10.0 mi Calm Calm - N/A   Clear
3:53 AM 57.0 °F - 48.9 °F 74% 29.99 in 10.0 mi Calm Calm - N/A   Clear
4:53 AM 55.9 °F - 48.9 °F 77% 30.00 in 10.0 mi Calm Calm - N/A   Clear
5:53 AM 55.0 °F - 48.0 °F 77% 30.01 in 10.0 mi Calm Calm - N/A   Clear
6:53 AM 54.0 °F - 48.0 °F 80% 30.04 in 10.0 mi NE 3.5 mph - N/A   Clear
7:53 AM 62.1 °F - 52.0 °F 70% 30.05 in 10.0 mi Calm Calm - N/A   Clear
8:53 AM 66.9 °F - 53.1 °F 61% 30.05 in 10.0 mi ESE 3.5 mph - N/A   Clear
9:53 AM 73.0 °F - 54.0 °F 51% 30.05 in 10.0 mi ESE 3.5 mph - N/A   Clear
10:53 AM 79.0 °F - 55.0 °F 44% 30.04 in 10.0 mi West 3.5 mph - N/A   Clear
11:53 AM 82.9 °F - 51.1 °F 33% 30.03 in 10.0 mi West 3.5 mph - N/A   Clear
12:53 PM 88.0 °F - 51.1 °F 28% 30.02 in 10.0 mi Calm Calm - N/A   Clear
1:53 PM 91.0 °F - 51.1 °F 25% 30.00 in 10.0 mi SSW 5.8 mph - 0.00 in Rain Light Rain
2:53 PM 93.0 °F - 51.1 °F 24% 29.99 in 10.0 mi Calm Calm - 0.00 in   Clear
3:53 PM 95.0 °F - 45.0 °F 18% 29.97 in 10.0 mi SSE 6.9 mph - N/A   Clear
4:53 PM 93.9 °F - 45.0 °F 18% 29.96 in 10.0 mi ESE 5.8 mph - N/A   Clear
5:53 PM 93.0 °F - 51.1 °F 24% 29.95 in 10.0 mi Calm Calm - N/A   Clear
6:53 PM 86.0 °F 84.7 °F 55.9 °F 36% 29.96 in 10.0 mi Calm Calm - N/A   Clear
7:53 PM 75.9 °F - 52.0 °F 43% 29.96 in 10.0 mi North 8.1 mph - N/A   Clear
8:53 PM 73.0 °F - 52.0 °F 48% 29.97 in 10.0 mi WNW 4.6 mph - N/A   Clear
9:53 PM 69.1 °F - 53.1 °F 57% 29.97 in 10.0 mi Calm Calm - N/A   Clear
10:53 PM 69.1 °F - 51.1 °F 53% 29.97 in 10.0 mi NW 3.5 mph - N/A   Clear
11:53 PM 68.0 °F - 51.1 °F 55% 29.97 in 10.0 mi Calm Calm - N/A   Clear